Overview Statistics Trail Chart Weather Telemetry Raw packets
 

This is the latest recevied weather packets stored in our database for station/object EA1HEH-13. If no packets are shown the sender has not sent any weather packets the latest 10 day(s).

<< 21 22 23 24 25 26 27 >>
Time Temp. Humidity Pressure Rain* Wind** Luminosity Snow
1788297285 26.67° C 22% 940.4 hPa - - - -
1788296685 26.67° C 22% 940.4 hPa - - - -
1788296085 26.67° C 22% 940.4 hPa - - - -
1788295485 26.67° C 22% 940.3 hPa - - - -
1788294885 26.67° C 22% 940.2 hPa - - - -
1788294285 26.67° C 23% 940.1 hPa - - - -
1788293685 26.67° C 22% 939.9 hPa - - - -
1788293085 26.67° C 22% 939.9 hPa - - - -
1788292485 27.22° C 23% 939.6 hPa - - - -
1788291885 27.22° C 23% 939.4 hPa - - - -
1788291285 27.22° C 23% 939.3 hPa - - - -
1788290685 27.22° C 24% 939.1 hPa - - - -
1788290085 27.78° C 23% 938.9 hPa - - - -
1788289505 27.78° C 23% 938.8 hPa - - - -
1788288885 28.33° C 23% 938.6 hPa - - - -
1788288285 28.33° C 23% 938.6 hPa - - - -
1788287685 28.89° C 23% 938.4 hPa - - - -
1788287085 28.89° C 23% 938.3 hPa - - - -
1788286485 28.89° C 24% 938.2 hPa - - - -
1788285885 28.89° C 23% 938.2 hPa - - - -
1788285285 29.44° C 14% 938.3 hPa - - - -
1788284685 30° C 15% 938.3 hPa - - - -
1788284085 30° C 15% 938.3 hPa - - - -
1788283485 29.44° C 15% 938.2 hPa - - - -
1788282885 29.44° C 15% 938.1 hPa - - - -

* Rain since midnight (hover to see other rain measurements)
** Current wind speed in m/s (hover to see current wind gust speed)